Location: Campillo
(40.8621°N, 4.2488°W)
Time: 02:58:33
(UTC+00:00)

Cosmos 158 Rocket - Pass Details

Date: 29 September 2021
Orbit: 699 x 792 km, 74.0° (Epoch: 19 October)

Event Time Altitude Azimuth Distance (km) Brightness Sun altitude
Rises 20:05:00 0° 332° (NNW) 3,137 7.9 -23.8°
Reaches altitude 10° 20:07:30 10° 324° (NW) 2,200 7.1 -24.2°
Maximum altitude 20:12:00 36° 258° (WSW) 1,112 5.2 -25.0°
Enters shadow 20:15:44 14° 197° (SSW) 1,918 6.0 -25.7°
